| time (UTC) | temp F | wind direction | speed MPH | gust MPH | rain 1hr in | rain 24hr in | rain mn in | humidity % | barometer mb |
| 20260508085017 | 57 | 135 | 3.0 | 6.0 | 0.00 | 0.07 | 0.00 | 90 | 1015.6 |
| 20260508084117 | 57 | 135 | 3.0 | 6.0 | 0.00 | 0.07 | 0.00 | 90 | 1015.6 |
| 20260508083017 | 57 | 112 | 5.0 | 9.0 | 0.00 | 0.07 | 0.00 | 90 | 1015.0 |
| 20260508082017 | 57 | 112 | 4.0 | 7.0 | 0.00 | 0.07 | 0.00 | 90 | 1015.2 |
| 20260508081015 | 57 | 112 | 4.0 | 8.0 | 0.00 | 0.07 | 0.00 | 90 | 1015.2 |
| 20260508080015 | 57 | 112 | 3.0 | 5.0 | 0.00 | 0.07 | 0.00 | 90 | 1015.3 |
| 20260508075015 | 57 | 112 | 5.0 | 7.0 | 0.00 | 0.07 | 0.00 | 90 | 1015.3 |
| 20260508074015 | 57 | 112 | 3.0 | 5.0 | 0.00 | 0.07 | 0.00 | 90 | 1015.5 |
| 20260508073015 | 57 | 135 | 3.0 | 4.0 | 0.00 | 0.07 | 0.00 | 89 | 1015.8 |
| 20260508072015 | 57 | 135 | 3.0 | 5.0 | 0.00 | 0.07 | 0.00 | 88 | 1016.1 |
| 20260508070015 | 57 | 135 | 4.0 | 9.0 | 0.00 | 0.07 | 0.00 | 88 | 1015.8 |
| 20260508065015 | 57 | 112 | 4.0 | 7.0 | 0.00 | 0.07 | 0.00 | 88 | 1015.6 |
| 20260508064035 | 57 | 112 | 4.0 | 9.0 | 0.00 | 0.07 | 0.00 | 88 | 1015.6 |
| 20260508063015 | 57 | 112 | 3.0 | 5.0 | 0.00 | 0.07 | 0.00 | 88 | 1015.6 |
| 20260508062035 | 57 | 90 | 4.0 | 7.0 | 0.00 | 0.07 | 0.00 | 88 | 1015.4 |
| 20260508061015 | 57 | 90 | 5.0 | 6.0 | 0.00 | 0.07 | 0.00 | 88 | 1015.4 |
| 20260508060015 | 57 | 67 | 5.0 | 7.0 | 0.00 | 0.07 | 0.00 | 88 | 1015.4 |
| 20260508055015 | 57 | 67 | 6.0 | 9.0 | 0.00 | 0.07 | 0.00 | 88 | 1015.5 |
| 20260508054015 | 57 | 90 | 4.0 | 6.0 | 0.00 | 0.07 | 0.00 | 88 | 1015.8 |
| 20260508053015 | 57 | 90 | 3.0 | 5.0 | 0.00 | 0.07 | 0.00 | 88 | 1015.8 |
| 20260508052015 | 57 | 90 | 4.0 | 7.0 | 0.00 | 0.07 | 0.00 | 88 | 1016.0 |
| 20260508051015 | 57 | 112 | 4.0 | 6.0 | 0.00 | 0.07 | 0.00 | 88 | 1016.1 |
| 20260508050015 | 57 | 90 | 5.0 | 7.0 | 0.00 | 0.07 | 0.07 | 88 | 1016.0 |
| 20260508045017 | 57 | 90 | 3.0 | 6.0 | 0.00 | 0.07 | 0.07 | 88 | 1016.2 |
| 20260508044017 | 57 | 90 | 3.0 | 5.0 | 0.00 | 0.07 | 0.07 | 88 | 1016.3 |
| 20260508043017 | 58 | 90 | 4.0 | 6.0 | 0.00 | 0.07 | 0.07 | 88 | 1016.2 |
| 20260508042117 | 58 | 67 | 6.0 | 9.0 | 0.00 | 0.07 | 0.07 | 90 | 1016.2 |
| 20260508041017 | 58 | 67 | 4.0 | 6.0 | 0.00 | 0.07 | 0.07 | 90 | 1016.5 |
| 20260508040017 | 58 | 67 | 3.0 | 4.0 | 0.00 | 0.07 | 0.07 | 91 | 1016.7 |
| 20260508035017 | 58 | 67 | 4.0 | 6.0 | 0.00 | 0.07 | 0.07 | 90 | 1016.4 |
| 20260508034016 | 58 | 67 | 2.0 | 5.0 | 0.00 | 0.07 | 0.07 | 90 | 1016.7 |
| 20260508033017 | 58 | 45 | 3.0 | 5.0 | 0.00 | 0.07 | 0.07 | 90 | 1016.1 |
| 20260508032017 | 58 | 67 | 4.0 | 7.0 | 0.00 | 0.07 | 0.07 | 90 | 1016.2 |
| 20260508031017 | 58 | 45 | 5.0 | 7.0 | 0.00 | 0.07 | 0.07 | 89 | 1016.1 |
| 20260508030017 | 58 | 67 | 4.0 | 8.0 | 0.00 | 0.07 | 0.07 | 88 | 1015.9 |
| 20260508025017 | 58 | 90 | 7.0 | 11.0 | 0.00 | 0.07 | 0.07 | 89 | 1015.4 |
| 20260508024017 | 58 | 112 | 3.0 | 5.0 | 0.00 | 0.07 | 0.07 | 90 | 1016.1 |
| 20260508023016 | 59 | 90 | 3.0 | 5.0 | 0.00 | 0.07 | 0.07 | 90 | 1016.0 |
| 20260508022016 | 59 | 0.0 | 2.0 | 0.00 | 0.07 | 0.07 | 90 | 1016.5 | |
| 20260508021016 | 59 | 225 | 3.0 | 5.0 | 0.00 | 0.07 | 0.07 | 89 | 1016.0 |
| 20260508015117 | 59 | 135 | 2.0 | 3.0 | 0.00 | 0.07 | 0.07 | 88 | 1016.4 |
| 20260508014016 | 59 | 45 | 2.0 | 4.0 | 0.00 | 0.07 | 0.07 | 87 | 1015.5 |
| 20260508013017 | 59 | 315 | 2.0 | 4.0 | 0.00 | 0.07 | 0.07 | 86 | 1015.6 |
| 20260508012016 | 59 | 337 | 4.0 | 6.0 | 0.00 | 0.07 | 0.07 | 85 | 1016.3 |
| 20260508011138 | 59 | 90 | 4.0 | 7.0 | 0.00 | 0.07 | 0.07 | 85 | 1015.4 |
| 20260508010016 | 59 | 67 | 5.0 | 8.0 | 0.00 | 0.07 | 0.07 | 84 | 1014.7 |
| 20260508005017 | 60 | 45 | 4.0 | 8.0 | 0.00 | 0.07 | 0.07 | 83 | 1015.3 |
| 20260508004118 | 60 | 90 | 5.0 | 9.0 | 0.00 | 0.07 | 0.07 | 82 | 1015.3 |
| 20260508003016 | 60 | 67 | 4.0 | 6.0 | 0.00 | 0.07 | 0.07 | 82 | 1015.7 |
| 20260508002016 | 60 | 67 | 7.0 | 10.0 | 0.00 | 0.07 | 0.07 | 82 | 1015.4 |
| 20260508001016 | 60 | 67 | 8.0 | 12.0 | 0.00 | 0.07 | 0.07 | 82 | 1015.2 |
| 20260508000017 | 60 | 90 | 6.0 | 11.0 | 0.00 | 0.07 | 0.07 | 82 | 1015.1 |
| 20260507235016 | 60 | 67 | 11.0 | 15.0 | 0.01 | 0.07 | 0.07 | 80 | 1014.9 |
| 20260507234117 | 60 | 67 | 9.0 | 15.0 | 0.01 | 0.07 | 0.07 | 80 | 1015.8 |
| 20260507233016 | 60 | 90 | 11.0 | 16.0 | 0.01 | 0.07 | 0.07 | 79 | 1015.5 |
| 20260507232016 | 60 | 67 | 7.0 | 12.0 | 0.01 | 0.07 | 0.07 | 79 | 1016.2 |
| 20260507231116 | 60 | 67 | 9.0 | 13.0 | 0.01 | 0.07 | 0.07 | 80 | 1016.3 |
| 20260507230016 | 60 | 90 | 10.0 | 17.0 | 0.01 | 0.07 | 0.07 | 81 | 1015.6 |
| 20260507225016 | 60 | 67 | 10.0 | 15.0 | 0.00 | 0.06 | 0.06 | 81 | 1016.1 |
| 20260507224016 | 60 | 90 | 6.0 | 9.0 | 0.00 | 0.06 | 0.06 | 81 | 1017.0 |
| 20260507223117 | 0 | 67 | 10.0 | 15.0 | 0.00 | 0.06 | 0.06 | ||
| 20260507222016 | 0 | 67 | 12.0 | 17.0 | 0.00 | 0.06 | 0.06 | ||
| 20260507221016 | 0 | 67 | 9.0 | 14.0 | 0.00 | 0.06 | 0.06 | ||
| 20260507220136 | 59 | 67 | 12.0 | 19.0 | 0.00 | 0.06 | 0.06 | 85 | 1016.4 |
| 20260507215015 | 59 | 67 | 12.0 | 16.0 | 0.00 | 0.06 | 0.06 | 85 | 1016.8 |
| 20260507214016 | 59 | 67 | 10.0 | 14.0 | 0.00 | 0.06 | 0.06 | 86 | 1017.2 |
| 20260507213018 | 58 | 67 | 10.0 | 14.0 | 0.00 | 0.06 | 0.06 | 86 | 1017.2 |
| 20260507212116 | 58 | 67 | 10.0 | 14.0 | 0.00 | 0.06 | 0.06 | 86 | 1017.6 |
| 20260507211016 | 58 | 67 | 11.0 | 17.0 | 0.00 | 0.06 | 0.06 | 85 | 1017.5 |
| 20260507210017 | 58 | 67 | 11.0 | 19.0 | 0.00 | 0.06 | 0.06 | 84 | 1018.0 |
| 20260507205016 | 58 | 67 | 10.0 | 16.0 | 0.00 | 0.06 | 0.06 | 87 | 1017.9 |
| 20260507204016 | 58 | 67 | 12.0 | 23.0 | 0.00 | 0.06 | 0.06 | 88 | 1017.7 |
| 20260507203016 | 57 | 67 | 15.0 | 20.0 | 0.00 | 0.06 | 0.06 | 91 | 1017.4 |
| 20260507202016 | 57 | 45 | 12.0 | 19.0 | 0.00 | 0.06 | 0.06 | 93 | 1017.9 |
| 20260507201016 | 57 | 45 | 13.0 | 18.0 | 0.00 | 0.06 | 0.06 | 92 | 1018.3 |
| 20260507200016 | 57 | 67 | 10.0 | 14.0 | 0.00 | 0.06 | 0.06 | 93 | 1018.1 |
| 20260507194017 | 57 | 67 | 14.0 | 18.0 | 0.00 | 0.06 | 0.06 | 95 | 1017.7 |
| 20260507193137 | 56 | 67 | 11.0 | 15.0 | 0.00 | 0.06 | 0.06 | 96 | 1018.2 |
| 20260507192016 | 56 | 67 | 14.0 | 18.0 | 0.00 | 0.06 | 0.06 | 96 | 1018.1 |
| 20260507191116 | 55 | 90 | 11.0 | 16.0 | 0.00 | 0.06 | 0.06 | 97 | 1017.8 |
| 20260507190016 | 55 | 67 | 11.0 | 16.0 | 0.00 | 0.06 | 0.06 | 98 | 1018.4 |
| 20260507185016 | 54 | 67 | 8.0 | 16.0 | 0.00 | 0.06 | 0.06 | 98 | 1018.4 |
| 20260507184017 | 54 | 67 | 14.0 | 19.0 | 0.01 | 0.06 | 0.06 | 98 | 1018.0 |
| 20260507183137 | 55 | 67 | 13.0 | 17.0 | 0.02 | 0.06 | 0.06 | 99 | 1018.1 |
| 20260507182017 | 54 | 67 | 12.0 | 19.0 | 0.02 | 0.06 | 0.06 | 99 | 1018.1 |
| 20260507181016 | 54 | 67 | 7.0 | 11.0 | 0.02 | 0.09 | 0.06 | 99 | 1019.5 |
| 20260507180016 | 54 | 22 | 8.0 | 14.0 | 0.02 | 0.09 | 0.06 | 99 | 1019.0 |
| 20260507175016 | 53 | 22 | 6.0 | 11.0 | 0.02 | 0.09 | 0.06 | 99 | 1019.5 |
| 20260507174117 | 53 | 45 | 6.0 | 10.0 | 0.01 | 0.08 | 0.05 | 99 | 1019.3 |
| 20260507173117 | 53 | 45 | 5.0 | 10.0 | 0.00 | 0.07 | 0.04 | 99 | 1019.3 |
| 20260507172017 | 53 | 67 | 7.0 | 13.0 | 0.00 | 0.07 | 0.04 | 99 | 1018.2 |
| 20260507171016 | 53 | 45 | 12.0 | 15.0 | 0.00 | 0.07 | 0.04 | 99 | 1017.9 |
| 20260507170016 | 53 | 45 | 11.0 | 17.0 | 0.00 | 0.07 | 0.04 | 99 | 1017.9 |
| 20260507165018 | 53 | 45 | 12.0 | 15.0 | 0.00 | 0.17 | 0.04 | 99 | 1017.9 |
| 20260507163022 | 53 | 67 | 17.0 | 23.0 | 0.01 | 0.17 | 0.04 | 99 | 1017.6 |
| 20260507162016 | 52 | 67 | 15.0 | 23.0 | 0.01 | 0.17 | 0.04 | 99 | 1018.0 |
| 20260507161016 | 52 | 67 | 12.0 | 16.0 | 0.02 | 0.17 | 0.04 | 99 | 1018.6 |
| 20260507160017 | 52 | 45 | 10.0 | 17.0 | 0.03 | 0.17 | 0.04 | 99 | 1018.7 |
| 20260507155016 | 52 | 90 | 9.0 | 14.0 | 0.03 | 0.17 | 0.04 | 99 | 1019.1 |
| 20260507154017 | 52 | 90 | 9.0 | 20.0 | 0.03 | 0.17 | 0.04 | 99 | 1018.4 |
| 20260507153016 | 52 | 45 | 19.0 | 28.0 | 0.02 | 0.16 | 0.03 | 99 | 1017.2 |
| 20260507152016 | 52 | 67 | 9.0 | 14.0 | 0.03 | 0.16 | 0.03 | 99 | 1019.3 |
| 20260507151018 | 52 | 67 | 7.0 | 17.0 | 0.02 | 0.15 | 0.02 | 99 | 1019.4 |
| 20260507150016 | 51 | 90 | 14.0 | 21.0 | 0.01 | 0.14 | 0.01 | 99 | |
| 20260507145017 | 51 | 45 | 13.0 | 17.0 | 0.01 | 0.14 | 0.01 | 99 | 1019.2 |
| 20260507144016 | 51 | 67 | 13.0 | 23.0 | 0.01 | 0.14 | 0.01 | 99 | 1018.4 |
| 20260507143017 | 52 | 45 | 17.0 | 22.0 | 0.01 | 0.18 | 0.01 | 99 | 1018.2 |
| 20260507142016 | 52 | 45 | 15.0 | 24.0 | 0.00 | 0.22 | 0.00 | 99 | 1018.1 |
| 20260507140017 | 52 | 45 | 17.0 | 24.0 | 0.00 | 0.23 | 0.00 | 99 | 1018.4 |
| 20260507135017 | 52 | 45 | 16.0 | 24.0 | 0.00 | 0.23 | 0.00 | 99 | 1018.1 |
| 20260507134017 | 52 | 45 | 10.0 | 15.0 | 0.00 | 0.23 | 0.00 | 99 | |
| 20260507133016 | 52 | 67 | 13.0 | 18.0 | 0.00 | 0.23 | 0.00 | 99 | |
| 20260507132017 | 52 | 45 | 17.0 | 23.0 | 0.00 | 0.23 | 0.00 | 99 | |
| 20260507131016 | 52 | 45 | 14.0 | 18.0 | 0.00 | 0.23 | 0.00 | 99 | 1018.4 |
| 20260507130016 | 53 | 45 | 15.0 | 22.0 | 0.00 | 0.23 | 0.00 | 99 | 1018.3 |
| 20260507125016 | 53 | 45 | 13.0 | 20.0 | 0.00 | 0.23 | 0.00 | 99 | 1018.3 |
| 20260507124016 | 53 | 45 | 14.0 | 21.0 | 0.00 | 0.23 | 0.00 | 99 | 1018.0 |
| 20260507123117 | 53 | 45 | 13.0 | 19.0 | 0.00 | 0.23 | 0.00 | 99 | 1017.4 |
| 20260507122017 | 53 | 45 | 13.0 | 17.0 | 0.00 | 0.23 | 0.00 | 99 | 1017.4 |
| 20260507121016 | 53 | 45 | 14.0 | 19.0 | 0.00 | 0.23 | 0.00 | 98 | 1017.5 |
| 20260507120016 | 53 | 45 | 15.0 | 22.0 | 0.00 | 0.23 | 0.00 | 98 | 1017.5 |
| 20260507115016 | 53 | 45 | 17.0 | 25.0 | 0.00 | 0.23 | 0.00 | 98 | 1017.2 |
| 20260507114016 | 53 | 45 | 14.0 | 21.0 | 0.00 | 0.23 | 0.00 | 98 | |
| 20260507113037 | 53 | 45 | 13.0 | 22.0 | 0.00 | 0.23 | 0.00 | 98 | |
| 20260507112017 | 53 | 45 | 15.0 | 22.0 | 0.00 | 0.23 | 0.00 | 98 | 1017.1 |
| 20260507111016 | 53 | 45 | 15.0 | 22.0 | 0.00 | 0.23 | 0.00 | 98 | 1016.7 |
| 20260507110117 | 54 | 45 | 15.0 | 19.0 | 0.00 | 0.23 | 0.00 | 98 | 1016.9 |
| 20260507104017 | 54 | 45 | 13.0 | 17.0 | 0.00 | 0.23 | 0.00 | 98 | 1016.5 |
| 20260507103017 | 54 | 45 | 12.0 | 17.0 | 0.00 | 0.23 | 0.00 | 98 | 1016.7 |
| 20260507102017 | 54 | 45 | 12.0 | 16.0 | 0.00 | 0.23 | 0.00 | 98 | 1016.4 |
| 20260507101016 | 54 | 45 | 13.0 | 20.0 | 0.00 | 0.23 | 0.00 | 98 | 1016.5 |
| 20260507095117 | 55 | 45 | 12.0 | 17.0 | 0.00 | 0.23 | 0.00 | 98 | |
| 20260507094017 | 55 | 45 | 11.0 | 16.0 | 0.00 | 0.23 | 0.00 | 98 | 1016.2 |
| 20260507093016 | 55 | 45 | 10.0 | 13.0 | 0.00 | 0.23 | 0.00 | 98 | 1016.0 |
| 20260507092017 | 55 | 45 | 11.0 | 16.0 | 0.00 | 0.23 | 0.00 | 98 | 1016.1 |
| 20260507091017 | 55 | 45 | 9.0 | 12.0 | 0.00 | 0.23 | 0.00 | 98 | 1016.3 |